Flag for South Africa Weather past 2 weeks in Rustenburg, South Africa

Now
64 °F

Mild.


Feels Like: 64 °F
Forecast: 63 / 86 °F
Wind: 7 mph from East

Location: Lanseria Civ / Mil

Current Time: Mar 7, 2015 at 4:21:22 AM

Latest Report: Mar 7, 2015 at 3:00 AM


Visibility: N/A

Pressure: 30.18 "Hg

Humidity: 73%

Dew point: 55 °F

Location of RustenburgLocation

Historic Weather in Rustenburg — Graph

°F

Rustenburg temperature yesterday

Maximum temperature yesterday: 86 °F (at 3:00 PM)
Minimum temperature yesterday: 63 °F (at 5:00 AM)
Average temperature yesterday: 71 °F

Past Weeks' High & Low Weather Summary

 TemperatureHumidityPressure
High90 °F (Feb 20, 3:00 PM)100% (Feb 23, 8:00 AM)30.42 "Hg (Feb 23, 8:00 AM)
Low52 °F (Mar 4, 6:00 AM)15% (Mar 4, 4:00 PM)29.98 "Hg (Mar 1, 2:00 PM)
Average71 °F57%30.17 "Hg
* Reported Feb 20 3:00 AM — Mar 7 3:00 AM, Rustenburg, Weather by CustomWeather, © 2015

Note: Actual official high and low records may vary slightly from our data, if they occured in-between our weather recording intervals... More about our weather records

Advertising

Rustenburg weather history for previous 24 hours

 ConditionsComfort  
Time TempWeatherWind HumidityBarometerVisibility
3:00 AM
Sat, Mar 7
64 °FMild.7 mph73%30.18 "HgN/A
2:00 AM66 °FMild.6 mph73%30.21 "HgN/A
1:00 AM66 °FMild.5 mph73%30.21 "HgN/A
12:00 AM66 °FMild.2 mph73%30.24 "HgN/A
11:00 PM
Fri, Mar 6
66 °FMild.6 mph73%30.21 "HgN/A
10:00 PM68 °FPassing clouds.6 mph69%30.21 "HgN/A
9:00 PM70 °FClear.6 mph60%30.21 "Hg10 mi
8:00 PM72 °FClear.2 mph53%30.21 "Hg10 mi
7:00 PM72 °FClear.14 mph53%30.18 "Hg10 mi
6:00 PM75 °FPassing clouds.18 mph39%30.18 "HgN/A
5:00 PM79 °FThunderstorms. Scattered clouds.14 mph37%30.18 "HgN/A
3:00 PM86 °FScattered clouds.7 mph29%30.18 "HgN/A
2:00 PM84 °FScattered clouds.6 mph33%30.21 "HgN/A
1:00 PM82 °FPassing clouds.8 mph37%30.24 "HgN/A
12:00 PM81 °FPassing clouds.7 mph39%30.27 "HgN/A
11:00 AM77 °FPassing clouds.9 mph44%30.30 "HgN/A
10:00 AM73 °FPassing clouds.9 mph53%30.30 "HgN/A
9:00 AM70 °FSunny.12 mph64%30.30 "Hg10 mi
8:00 AM66 °FSunny.12 mph73%30.30 "Hg10 mi
7:00 AM64 °FSunny.9 mph78%30.27 "Hg10 mi
6:00 AM63 °FScattered clouds.10 mph83%30.24 "HgN/A
5:00 AM63 °FMild.10 mph83%30.24 "HgN/A
4:00 AM64 °FMild.10 mph78%30.21 "HgN/A
Weather by CustomWeather, © 2015

See weather overviewHow to use our weather pages